Zurück zum Katalog

STARLINK-33685

AktivKommunikationVLEO
NORAD 63465·PAYLOAD·🇺🇸 United States

Gestartet Apr 6, 2025 von Cape Canaveral Space Force Station

Loading…

Nächste Überflüge (nächste 24 Stunden)

TLE

AktuellSource: CelesTrak SupGP

Epoche: Sep 14, 2026, 15:03 UTC

1 63465C 25070F   26257.62756944  .00000264  00000+0  95559-5 0  2579
2 63465  43.0006 272.9289 0001541 276.1384 324.9623 15.27575502    19

Verfolge STARLINK-33685 in Echtzeit mit AllMySat

Download on the App Store